Погода в Паньшине

Россия / Ульяновская область     52°55′32″N   48°27′25″E
темп.,
°C
ветер,
м/с
пор.,
м/с
влажн.,
%
обл.,
%
осадки,
мм/ч
давл.,
гПа
погр.,
м
18 мая, вт
вт1801:00+19ссв11430 0.0 101611
04:00+17всв11490 0.0 101611
07:00+20всв12460 0.0 101676
10:00+26вюв45322 0.0 1015469
13:00+31вюв56250 0.0 10151390
16:00+31юв56205 0.0 10143751
19:00+27в38384 0.0 1014137
22:00+20всв23450 0.0 101427
19 мая, ср
ср1901:00+18всв22455 0.0 101419
04:00+16св22567 0.0 101419
07:00+19в310655 0.0 1014287
10:00+25в57485 0.0 1014603
13:00+29в78374 0.0 10141564
16:00+29в78346 0.0 10132538
19:00+25в713450 0.0 1013467
22:00+21вюв615510 0.0 1014399
20 мая, чт
чт2001:00+20вюв615580 0.0 1014518
04:00+18вюв614580 0.0 1014503
07:00+18вюв614650 0.0 1015651
10:00+23юв811500 0.0 10141102
13:00+26юв894363 0.0 10142167
16:00+21юз376678 0.3 1013215
19:00+19юз61072100 0.0 1013397
22:00+16зюз118187 0.3 101332
21 мая, пт
пт2101:00+15ююз3491100 1.7 1013146
04:00+14зсз2688100 2.1 1013156
07:00+15ююз238699 0.0 1013142
10:00+19юз45683 0.2 1014846
13:00+21зюз775354 0.8 10141721
16:00+22зюз674892 0.8 10142013
19:00+19зюз596411 0.0 1016550
22:00+16з3375100 0.0 101741
22 мая, сб
сб2201:00+14з228138 0.0 101831
04:00+13з118462 0.0 101911
07:00+16з227234 0.0 1020182
10:00+20з2458100 0.0 1020844
13:00+23зюз2350100 0.0 10201317
16:00+25ююз224698 0.0 10201482
19:00+24вюв125386 0.0 1020117
22:00+18в3869100 0.0 1020148